Time,TemperatureF,DewpointF,PressureIn,WindDirection,WindDirectionDegrees,WindSpeedMPH,WindSpeedGustMPH,Humidity,HourlyPrecipIn,Conditions,Clouds,dailyrainin,SoftwareType,DateUTC
2013-07-16 00:01:00,75.1,70.3,30.20,South,177,0.0,0.0,85,0.00,,,0.00,Wunderground v.1.15,2013-07-16 04:01:00,
2013-07-16 00:02:00,75.1,70.3,30.20,South,177,0.0,0.0,85,0.00,,,0.00,Wunderground v.1.15,2013-07-16 04:02:00,
2013-07-16 00:03:00,75.1,70.3,30.20,South,177,0.0,0.0,85,0.00,,,0.00,Wunderground v.1.15,2013-07-16 04:03:00,
2013-07-16 00:08:00,74.9,70.1,30.20,South,177,0.0,0.0,85,0.00,,,0.00,Wunderground v.1.15,2013-07-16 04:08:00,
2013-07-16 00:09:00,74.9,70.1,30.20,South,177,0.0,0.0,85,0.00,,,0.00,Wunderground v.1.15,2013-07-16 04:09:00,
2013-07-16 00:15:00,74.7,69.9,30.20,South,177,0.0,0.0,85,0.00,,,0.00,Wunderground v.1.15,2013-07-16 04:15:00,
2013-07-16 00:21:00,74.5,69.7,30.20,South,177,0.0,0.0,85,0.00,,,0.00,Wunderground v.1.15,2013-07-16 04:21:00,
2013-07-16 00:27:00,74.3,69.5,30.20,South,177,0.0,0.0,85,0.00,,,0.00,Wunderground v.1.15,2013-07-16 04:27:00,
2013-07-16 00:32:00,74.1,69.6,30.20,South,177,0.0,0.0,86,0.00,,,0.00,Wunderground v.1.15,2013-07-16 04:32:00,
2013-07-16 00:38:00,73.9,69.4,30.20,South,177,0.0,0.0,86,0.00,,,0.00,Wunderground v.1.15,2013-07-16 04:38:00,
2013-07-16 00:43:00,73.8,69.3,30.19,South,177,0.0,0.0,86,0.00,,,0.00,Wunderground v.1.15,2013-07-16 04:43:00,
2013-07-16 00:48:00,73.6,69.5,30.20,South,177,0.0,0.0,87,0.00,,,0.00,Wunderground v.1.15,2013-07-16 04:48:00,
2013-07-16 00:54:00,73.4,69.6,30.20,South,177,0.0,0.0,88,0.00,,,0.00,Wunderground v.1.15,2013-07-16 04:54:00,
2013-07-16 01:00:00,73.2,69.4,30.19,South,177,0.0,0.0,88,0.00,,,0.00,Wunderground v.1.15,2013-07-16 05:00:00,
2013-07-16 01:05:00,73.0,69.2,30.19,South,177,0.0,0.0,88,0.00,,,0.00,Wunderground v.1.15,2013-07-16 05:05:00,
2013-07-16 01:10:00,72.9,69.1,30.19,South,177,0.0,0.0,88,0.00,,,0.00,Wunderground v.1.15,2013-07-16 05:10:00,
2013-07-16 01:16:00,72.8,69.0,30.19,South,177,0.0,0.0,88,0.00,,,0.00,Wunderground v.1.15,2013-07-16 05:16:00,
2013-07-16 01:21:00,72.7,68.9,30.20,South,177,0.0,0.0,88,0.00,,,0.00,Wunderground v.1.15,2013-07-16 05:21:00,
2013-07-16 01:26:00,72.6,68.8,30.19,South,177,0.0,0.0,88,0.00,,,0.00,Wunderground v.1.15,2013-07-16 05:26:00,
2013-07-16 01:32:00,72.5,68.7,30.20,South,177,0.0,0.0,88,0.00,,,0.00,Wunderground v.1.15,2013-07-16 05:32:00,
2013-07-16 01:38:00,72.5,68.7,30.19,South,177,0.0,0.0,88,0.00,,,0.00,Wunderground v.1.15,2013-07-16 05:38:00,
2013-07-16 01:43:00,72.3,68.5,30.19,South,177,0.0,0.0,88,0.00,,,0.00,Wunderground v.1.15,2013-07-16 05:43:00,
2013-07-16 01:49:00,72.1,68.7,30.19,South,177,0.0,0.0,89,0.00,,,0.00,Wunderground v.1.15,2013-07-16 05:49:00,
2013-07-16 01:54:00,72.0,68.6,30.19,South,177,0.0,0.0,89,0.00,,,0.00,Wunderground v.1.15,2013-07-16 05:54:00,
2013-07-16 02:00:00,71.8,68.4,30.20,South,177,0.0,0.0,89,0.00,,,0.00,Wunderground v.1.15,2013-07-16 06:00:00,
2013-07-16 02:06:00,71.6,68.2,30.19,South,177,0.0,0.0,89,0.00,,,0.00,Wunderground v.1.15,2013-07-16 06:06:00,
2013-07-16 02:12:00,71.5,68.4,30.19,South,177,0.0,0.0,90,0.00,,,0.00,Wunderground v.1.15,2013-07-16 06:12:00,
2013-07-16 02:17:00,71.4,68.3,30.19,South,177,0.0,0.0,90,0.00,,,0.00,Wunderground v.1.15,2013-07-16 06:17:00,
2013-07-16 02:22:00,71.3,68.2,30.19,South,177,0.0,0.0,90,0.00,,,0.00,Wunderground v.1.15,2013-07-16 06:22:00,
2013-07-16 02:27:00,71.3,68.2,30.19,South,177,0.0,0.0,90,0.00,,,0.00,Wunderground v.1.15,2013-07-16 06:27:00,
2013-07-16 02:33:00,71.2,68.1,30.19,South,177,0.0,0.0,90,0.00,,,0.00,Wunderground v.1.15,2013-07-16 06:33:00,
2013-07-16 02:39:00,71.0,67.9,30.19,South,177,0.0,0.0,90,0.00,,,0.00,Wunderground v.1.15,2013-07-16 06:39:00,
2013-07-16 02:45:00,70.9,67.8,30.19,South,177,0.0,0.0,90,0.00,,,0.00,Wunderground v.1.15,2013-07-16 06:45:00,
2013-07-16 02:50:00,70.8,68.0,30.19,South,177,0.0,0.0,91,0.00,,,0.00,Wunderground v.1.15,2013-07-16 06:50:00,
2013-07-16 02:55:00,70.7,67.9,30.19,South,177,0.0,0.0,91,0.00,,,0.00,Wunderground v.1.15,2013-07-16 06:55:00,
2013-07-16 03:01:00,70.6,67.8,30.19,South,177,0.0,0.0,91,0.00,,,0.00,Wunderground v.1.15,2013-07-16 07:01:00,
2013-07-16 03:06:00,70.5,67.7,30.19,South,177,0.0,0.0,91,0.00,,,0.00,Wunderground v.1.15,2013-07-16 07:06:00,
2013-07-16 03:11:00,70.4,67.6,30.19,South,177,0.0,0.0,91,0.00,,,0.00,Wunderground v.1.15,2013-07-16 07:11:00,
2013-07-16 03:17:00,70.3,67.5,30.19,South,177,0.0,0.0,91,0.00,,,0.00,Wunderground v.1.15,2013-07-16 07:17:00,
2013-07-16 03:23:00,70.2,67.8,30.19,South,177,0.0,0.0,92,0.00,,,0.00,Wunderground v.1.15,2013-07-16 07:23:00,
2013-07-16 03:26:00,70.2,67.8,30.19,South,177,0.0,0.0,92,0.00,,,0.00,Wunderground v.1.15,2013-07-16 07:26:00,
2013-07-16 03:31:00,70.2,67.4,30.19,South,177,0.0,0.0,91,0.00,,,0.00,Wunderground v.1.15,2013-07-16 07:31:00,
2013-07-16 03:36:00,70.2,67.8,30.19,South,177,0.0,0.0,92,0.00,,,0.00,Wunderground v.1.15,2013-07-16 07:36:00,
2013-07-16 03:42:00,70.2,67.8,30.19,South,177,0.0,0.0,92,0.00,,,0.00,Wunderground v.1.15,2013-07-16 07:42:00,
2013-07-16 03:48:00,70.2,67.8,30.19,South,177,0.0,0.0,92,0.00,,,0.00,Wunderground v.1.15,2013-07-16 07:48:00,
2013-07-16 03:53:00,70.2,67.8,30.19,WSW,258,0.0,0.0,92,0.00,,,0.00,Wunderground v.1.15,2013-07-16 07:53:00,
2013-07-16 03:59:00,70.2,67.4,30.19,NNE,16,0.0,0.0,91,0.00,,,0.00,Wunderground v.1.15,2013-07-16 07:59:00,
2013-07-16 04:05:00,70.2,67.4,30.19,NNE,16,0.0,0.0,91,0.00,,,0.00,Wunderground v.1.15,2013-07-16 08:05:00,
2013-07-16 04:11:00,70.2,67.4,30.19,NNE,16,0.0,0.0,91,0.00,,,0.00,Wunderground v.1.15,2013-07-16 08:11:00,
2013-07-16 04:16:00,70.1,67.3,30.19,NNE,16,0.0,0.0,91,0.00,,,0.00,Wunderground v.1.15,2013-07-16 08:16:00,
2013-07-16 04:22:00,70.1,67.3,30.19,NNE,16,0.0,0.0,91,0.00,,,0.00,Wunderground v.1.15,2013-07-16 08:22:00,
2013-07-16 04:27:00,70.0,67.6,30.19,NNE,16,0.0,0.0,92,0.00,,,0.00,Wunderground v.1.15,2013-07-16 08:27:00,
2013-07-16 04:32:00,69.9,67.2,30.19,NNE,16,0.0,0.0,91,0.00,,,0.00,Wunderground v.1.15,2013-07-16 08:32:00,
2013-07-16 04:37:00,69.7,67.0,30.19,NNE,16,0.0,0.0,91,0.00,,,0.00,Wunderground v.1.15,2013-07-16 08:37:00,
2013-07-16 04:43:00,69.6,66.9,30.19,NNE,16,0.0,0.0,91,0.00,,,0.00,Wunderground v.1.15,2013-07-16 08:43:00,
2013-07-16 04:49:00,69.3,66.9,30.19,NNE,16,0.0,0.0,92,0.00,,,0.00,Wunderground v.1.15,2013-07-16 08:49:00,
2013-07-16 04:55:00,69.1,66.7,30.20,NNE,16,0.0,0.0,92,0.00,,,0.00,Wunderground v.1.15,2013-07-16 08:55:00,
2013-07-16 05:00:00,69.1,66.7,30.20,NNE,16,0.0,0.0,92,0.00,,,0.00,Wunderground v.1.15,2013-07-16 09:00:00,
2013-07-16 05:05:00,69.0,66.9,30.20,NNE,16,0.0,0.0,93,0.00,,,0.00,Wunderground v.1.15,2013-07-16 09:05:00,
2013-07-16 05:11:00,69.0,66.9,30.20,NNE,16,0.0,0.0,93,0.00,,,0.00,Wunderground v.1.15,2013-07-16 09:11:00,
2013-07-16 05:16:00,69.0,66.9,30.20,NNE,16,0.0,0.0,93,0.00,,,0.00,Wunderground v.1.15,2013-07-16 09:16:00,
2013-07-16 05:22:00,69.1,67.0,30.20,WSW,257,0.0,0.0,93,0.00,,,0.00,Wunderground v.1.15,2013-07-16 09:22:00,
2013-07-16 05:27:00,69.2,67.1,30.20,WSW,256,0.0,0.0,93,0.00,,,0.00,Wunderground v.1.15,2013-07-16 09:27:00,
2013-07-16 05:33:00,69.2,67.1,30.20,WSW,257,0.0,0.0,93,0.00,,,0.00,Wunderground v.1.15,2013-07-16 09:33:00,
2013-07-16 05:39:00,69.2,66.8,30.20,WSW,257,0.0,0.0,92,0.00,,,0.00,Wunderground v.1.15,2013-07-16 09:39:00,
2013-07-16 05:44:00,69.2,66.8,30.20,WSW,256,0.0,0.0,92,0.00,,,0.00,Wunderground v.1.15,2013-07-16 09:44:00,
2013-07-16 05:50:00,69.2,66.8,30.20,WSW,256,0.0,0.0,92,0.00,,,0.00,Wunderground v.1.15,2013-07-16 09:50:00,
2013-07-16 05:56:00,69.2,66.8,30.21,WSW,256,0.0,0.0,92,0.00,,,0.00,Wunderground v.1.15,2013-07-16 09:56:00,
2013-07-16 06:01:00,69.2,66.8,30.21,WSW,256,0.0,0.0,92,0.00,,,0.00,Wunderground v.1.15,2013-07-16 10:01:00,
2013-07-16 06:07:00,69.0,66.6,30.21,WSW,257,0.0,0.0,92,0.00,,,0.00,Wunderground v.1.15,2013-07-16 10:07:00,
2013-07-16 06:13:00,68.9,66.5,30.21,WSW,257,0.0,0.0,92,0.00,,,0.00,Wunderground v.1.15,2013-07-16 10:13:00,
2013-07-16 06:19:00,68.8,66.4,30.21,WSW,257,0.0,0.0,92,0.00,,,0.00,Wunderground v.1.15,2013-07-16 10:19:00,
2013-07-16 06:24:00,68.8,66.7,30.21,WSW,257,0.0,0.0,93,0.00,,,0.00,Wunderground v.1.15,2013-07-16 10:24:00,
2013-07-16 06:30:00,68.8,66.7,30.22,WSW,256,0.0,0.0,93,0.00,,,0.00,Wunderground v.1.15,2013-07-16 10:30:00,
2013-07-16 06:35:00,68.9,66.8,30.22,WSW,256,0.0,0.0,93,0.00,,,0.00,Wunderground v.1.15,2013-07-16 10:35:00,
2013-07-16 06:41:00,69.2,66.8,30.21,WSW,257,0.0,0.0,92,0.00,,,0.00,Wunderground v.1.15,2013-07-16 10:41:00,
2013-07-16 06:47:00,69.6,67.2,30.21,WSW,257,0.0,0.0,92,0.00,,,0.00,Wunderground v.1.15,2013-07-16 10:47:00,
2013-07-16 06:53:00,70.0,67.3,30.21,WSW,257,0.0,0.0,91,0.00,,,0.00,Wunderground v.1.15,2013-07-16 10:53:00,
2013-07-16 06:58:00,70.3,67.5,30.21,WSW,257,0.0,0.0,91,0.00,,,0.00,Wunderground v.1.15,2013-07-16 10:58:00,
2013-07-16 07:04:00,70.7,67.6,30.21,WSW,257,0.0,0.0,90,0.00,,,0.00,Wunderground v.1.15,2013-07-16 11:04:00,
2013-07-16 07:09:00,71.3,67.9,30.21,WSW,257,0.0,0.0,89,0.00,,,0.00,Wunderground v.1.15,2013-07-16 11:09:00,
2013-07-16 07:14:00,71.5,67.8,30.21,WSW,257,0.0,0.0,88,0.00,,,0.00,Wunderground v.1.15,2013-07-16 11:14:00,
2013-07-16 07:19:00,71.7,67.6,30.22,WSW,257,0.0,0.0,87,0.00,,,0.00,Wunderground v.1.15,2013-07-16 11:19:00,
2013-07-16 07:24:00,72.3,67.9,30.22,WSW,257,0.0,0.0,86,0.00,,,0.00,Wunderground v.1.15,2013-07-16 11:24:00,
2013-07-16 07:29:00,72.8,68.0,30.22,WSW,257,0.0,0.0,85,0.00,,,0.00,Wunderground v.1.15,2013-07-16 11:29:00,
2013-07-16 07:35:00,73.0,68.2,30.22,WSW,257,0.0,0.0,85,0.00,,,0.00,Wunderground v.1.15,2013-07-16 11:35:00,
2013-07-16 07:41:00,73.4,68.6,30.22,WSW,257,0.0,0.0,85,0.00,,,0.00,Wunderground v.1.15,2013-07-16 11:41:00,
2013-07-16 07:46:00,73.8,68.7,30.22,WSW,257,0.0,0.0,84,0.00,,,0.00,Wunderground v.1.15,2013-07-16 11:46:00,
2013-07-16 07:51:00,74.0,68.2,30.22,WSW,257,0.0,0.0,82,0.00,,,0.00,Wunderground v.1.15,2013-07-16 11:51:00,
2013-07-16 07:57:00,74.1,68.6,30.22,WSW,257,0.0,0.0,83,0.00,,,0.00,Wunderground v.1.15,2013-07-16 11:57:00,
2013-07-16 08:03:00,74.6,68.7,30.22,WSW,257,0.0,0.0,82,0.00,,,0.00,Wunderground v.1.15,2013-07-16 12:03:00,
2013-07-16 08:08:00,75.0,69.1,30.22,WSW,257,0.0,0.0,82,0.00,,,0.00,Wunderground v.1.15,2013-07-16 12:08:00,
2013-07-16 08:13:00,75.8,69.2,30.22,WSW,257,0.0,0.0,80,0.00,,,0.00,Wunderground v.1.15,2013-07-16 12:13:00,
2013-07-16 08:18:00,75.9,68.9,30.22,WSW,257,0.0,0.0,79,0.00,,,0.00,Wunderground v.1.15,2013-07-16 12:18:00,
2013-07-16 08:24:00,76.5,69.9,30.22,WSW,257,0.0,0.0,80,0.00,,,0.00,Wunderground v.1.15,2013-07-16 12:24:00,
2013-07-16 08:30:00,77.7,70.3,30.22,WSW,257,0.0,0.0,78,0.00,,,0.00,Wunderground v.1.15,2013-07-16 12:30:00,
2013-07-16 08:35:00,78.5,70.7,30.22,WSW,257,0.0,0.0,77,0.00,,,0.00,Wunderground v.1.15,2013-07-16 12:35:00,
2013-07-16 08:41:00,79.2,71.0,30.22,WSW,257,0.0,0.0,76,0.00,,,0.00,Wunderground v.1.15,2013-07-16 12:41:00,
2013-07-16 08:46:00,79.5,70.9,30.22,WSW,256,0.0,0.0,75,0.00,,,0.00,Wunderground v.1.15,2013-07-16 12:46:00,
2013-07-16 08:52:00,79.7,70.7,30.22,WSW,256,0.0,0.0,74,0.00,,,0.00,Wunderground v.1.15,2013-07-16 12:52:00,
2013-07-16 08:58:00,80.1,71.1,30.22,WSW,256,0.0,0.0,74,0.00,,,0.00,Wunderground v.1.15,2013-07-16 12:58:00,
2013-07-16 09:04:00,80.4,70.9,30.22,West,264,0.0,0.0,73,0.00,,,0.00,Wunderground v.1.15,2013-07-16 13:04:00,
2013-07-16 09:09:00,80.6,71.1,30.22,West,264,0.0,0.0,73,0.00,,,0.00,Wunderground v.1.15,2013-07-16 13:09:00,
2013-07-16 09:15:00,81.1,71.6,30.22,WNW,302,0.0,0.0,73,0.00,,,0.00,Wunderground v.1.15,2013-07-16 13:15:00,
2013-07-16 09:21:00,80.2,70.4,30.22,NNW,334,0.0,0.0,72,0.00,,,0.00,Wunderground v.1.15,2013-07-16 13:21:00,
2013-07-16 09:26:00,80.0,70.6,30.22,NW,320,0.0,0.0,73,0.00,,,0.00,Wunderground v.1.15,2013-07-16 13:26:00,
2013-07-16 09:32:00,80.3,71.3,30.22,NW,326,0.0,0.0,74,0.00,,,0.00,Wunderground v.1.15,2013-07-16 13:32:00,
2013-07-16 09:37:00,81.0,71.5,30.22,NNW,327,0.0,0.0,73,0.00,,,0.00,Wunderground v.1.15,2013-07-16 13:37:00,
2013-07-16 09:43:00,81.3,71.4,30.22,NNW,332,0.0,0.0,72,0.00,,,0.00,Wunderground v.1.15,2013-07-16 13:43:00,
2013-07-16 09:48:00,81.6,71.7,30.21,NNW,333,0.0,0.0,72,0.00,,,0.00,Wunderground v.1.15,2013-07-16 13:48:00,
2013-07-16 09:54:00,81.6,71.7,30.21,NNW,335,0.0,0.0,72,0.00,,,0.00,Wunderground v.1.15,2013-07-16 13:54:00,
2013-07-16 10:00:00,81.3,71.4,30.21,NW,313,1.0,3.0,72,0.00,,,0.00,Wunderground v.1.15,2013-07-16 14:00:00,
2013-07-16 10:05:00,81.3,71.8,30.21,NNW,328,1.0,3.0,73,0.00,,,0.00,Wunderground v.1.15,2013-07-16 14:05:00,
2013-07-16 10:10:00,81.7,71.4,30.21,NNW,328,1.0,1.0,71,0.00,,,0.00,Wunderground v.1.15,2013-07-16 14:10:00,
2013-07-16 10:16:00,81.9,70.7,30.21,North,359,2.0,7.0,69,0.00,,,0.00,Wunderground v.1.15,2013-07-16 14:16:00,
2013-07-16 10:21:00,81.5,71.2,30.21,NNW,337,3.0,5.0,71,0.00,,,0.00,Wunderground v.1.15,2013-07-16 14:21:00,
2013-07-16 10:27:00,82.0,72.1,30.21,NNW,347,3.0,5.0,72,0.00,,,0.00,Wunderground v.1.15,2013-07-16 14:27:00,
2013-07-16 10:33:00,82.5,71.7,30.21,NNE,25,2.0,4.0,70,0.00,,,0.00,Wunderground v.1.15,2013-07-16 14:33:00,
2013-07-16 10:38:00,82.6,71.4,30.21,NW,304,3.0,8.0,69,0.00,,,0.00,Wunderground v.1.15,2013-07-16 14:38:00,
2013-07-16 10:43:00,82.8,72.0,30.21,North,10,3.0,4.0,70,0.00,,,0.00,Wunderground v.1.15,2013-07-16 14:43:00,
2013-07-16 10:49:00,82.6,71.4,30.21,North,354,4.0,7.0,69,0.00,,,0.00,Wunderground v.1.15,2013-07-16 14:49:00,
2013-07-16 10:54:00,83.0,73.0,30.21,North,349,4.0,5.0,72,0.00,,,0.00,Wunderground v.1.15,2013-07-16 14:54:00,
2013-07-16 10:59:00,83.3,72.1,30.21,NNE,30,3.0,5.0,69,0.00,,,0.00,Wunderground v.1.15,2013-07-16 14:59:00,
2013-07-16 11:04:00,83.5,72.7,30.21,North,4,3.0,4.0,70,0.00,,,0.00,Wunderground v.1.15,2013-07-16 15:04:00,
2013-07-16 11:10:00,83.4,72.2,30.21,NNW,339,5.0,5.0,69,0.00,,,0.00,Wunderground v.1.15,2013-07-16 15:10:00,
2013-07-16 11:15:00,83.5,72.7,30.21,NNW,345,5.0,7.0,70,0.00,,,0.00,Wunderground v.1.15,2013-07-16 15:15:00,
2013-07-16 11:20:00,83.8,73.0,30.20,North,354,5.0,7.0,70,0.00,,,0.00,Wunderground v.1.15,2013-07-16 15:20:00,
2013-07-16 11:25:00,84.0,72.7,30.20,NW,324,4.0,8.0,69,0.00,,,0.00,Wunderground v.1.15,2013-07-16 15:25:00,
2013-07-16 11:30:00,83.9,71.8,30.20,NW,326,4.0,7.0,67,0.00,,,0.00,Wunderground v.1.15,2013-07-16 15:30:00,
2013-07-16 11:36:00,84.1,72.8,30.20,NNE,15,5.0,8.0,69,0.00,,,0.00,Wunderground v.1.15,2013-07-16 15:36:00,
2013-07-16 11:41:00,84.2,72.9,30.20,NW,322,5.0,8.0,69,0.00,,,0.00,Wunderground v.1.15,2013-07-16 15:41:00,
2013-07-16 11:46:00,84.4,73.5,30.20,NNE,12,5.0,8.0,70,0.00,,,0.00,Wunderground v.1.15,2013-07-16 15:46:00,
2013-07-16 11:52:00,84.6,72.4,30.20,NNE,12,5.0,7.0,67,0.00,,,0.00,Wunderground v.1.15,2013-07-16 15:52:00,
2013-07-16 11:58:00,85.0,73.3,30.20,NNE,23,5.0,7.0,68,0.00,,,0.00,Wunderground v.1.15,2013-07-16 15:58:00,
2013-07-16 12:04:00,85.0,72.8,30.20,North,359,5.0,9.0,67,0.00,,,0.00,Wunderground v.1.15,2013-07-16 16:04:00,
2013-07-16 12:09:00,84.8,72.2,30.20,North,10,6.0,10.0,66,0.00,,,0.00,Wunderground v.1.15,2013-07-16 16:09:00,
2013-07-16 12:15:00,84.9,72.7,30.19,NW,324,7.0,10.0,67,0.00,,,0.00,Wunderground v.1.15,2013-07-16 16:15:00,
2013-07-16 12:20:00,85.1,72.9,30.20,NW,322,6.0,7.0,67,0.00,,,0.00,Wunderground v.1.15,2013-07-16 16:20:00,
2013-07-16 12:26:00,85.3,72.6,30.19,NNW,328,5.0,7.0,66,0.00,,,0.00,Wunderground v.1.15,2013-07-16 16:26:00,
2013-07-16 12:32:00,85.3,73.1,30.19,NNE,25,6.0,6.0,67,0.00,,,0.00,Wunderground v.1.15,2013-07-16 16:32:00,
2013-07-16 12:35:00,85.4,72.7,30.19,North,10,6.0,8.0,66,0.00,,,0.00,Wunderground v.1.15,2013-07-16 16:35:00,
2013-07-16 12:41:00,85.9,74.5,30.19,NNE,33,4.0,5.0,69,0.00,,,0.00,Wunderground v.1.15,2013-07-16 16:41:00,
2013-07-16 12:47:00,85.9,73.7,30.19,NNW,332,4.0,6.0,67,0.00,,,0.00,Wunderground v.1.15,2013-07-16 16:47:00,
2013-07-16 12:52:00,86.4,73.2,30.18,NE,56,4.0,4.0,65,0.00,,,0.00,Wunderground v.1.15,2013-07-16 16:52:00,
2013-07-16 12:58:00,87.0,73.3,30.18,NE,35,3.0,6.0,64,0.00,,,0.00,Wunderground v.1.15,2013-07-16 16:58:00,
2013-07-16 13:04:00,86.4,72.8,30.18,NW,305,5.0,8.0,64,0.00,,,0.00,Wunderground v.1.15,2013-07-16 17:04:00,
2013-07-16 13:10:00,86.2,73.0,30.18,North,4,5.0,5.0,65,0.00,,,0.00,Wunderground v.1.15,2013-07-16 17:10:00,
2013-07-16 13:16:00,86.8,73.2,30.18,NNE,21,3.0,5.0,64,0.00,,,0.00,Wunderground v.1.15,2013-07-16 17:16:00,
2013-07-16 13:22:00,86.7,73.5,30.18,NNW,343,3.0,3.0,65,0.00,,,0.00,Wunderground v.1.15,2013-07-16 17:22:00,
2013-07-16 13:28:00,87.0,72.9,30.18,NNW,346,3.0,6.0,63,0.00,,,0.00,Wunderground v.1.15,2013-07-16 17:28:00,
2013-07-16 13:34:00,86.9,72.3,30.18,NNW,340,3.0,5.0,62,0.00,,,0.00,Wunderground v.1.15,2013-07-16 17:34:00,
2013-07-16 13:39:00,86.9,73.7,30.18,North,4,4.0,6.0,65,0.00,,,0.00,Wunderground v.1.15,2013-07-16 17:39:00,
2013-07-16 13:45:00,87.2,73.1,30.17,NE,48,4.0,4.0,63,0.00,,,0.00,Wunderground v.1.15,2013-07-16 17:45:00,
2013-07-16 13:50:00,87.6,73.0,30.17,NNW,341,3.0,3.0,62,0.00,,,0.00,Wunderground v.1.15,2013-07-16 17:50:00,
2013-07-16 13:56:00,87.2,71.6,30.17,NNW,342,4.0,8.0,60,0.00,,,0.00,Wunderground v.1.15,2013-07-16 17:56:00,
2013-07-16 14:02:00,86.8,73.2,30.17,NW,316,3.0,4.0,64,0.00,,,0.00,Wunderground v.1.15,2013-07-16 18:02:00,
2013-07-16 14:04:00,86.9,72.3,30.17,NW,322,3.0,4.0,62,0.00,,,0.00,Wunderground v.1.15,2013-07-16 18:04:00,
2013-07-16 14:10:00,87.3,75.0,30.17,NNE,33,3.0,4.0,67,0.00,,,0.00,Wunderground v.1.15,2013-07-16 18:10:00,
2013-07-16 14:15:00,87.6,73.4,30.17,North,350,2.0,4.0,63,0.00,,,0.00,Wunderground v.1.15,2013-07-16 18:15:00,
2013-07-16 14:21:00,87.5,72.9,30.17,NNW,328,3.0,3.0,62,0.00,,,0.00,Wunderground v.1.15,2013-07-16 18:21:00,
2013-07-16 14:26:00,87.7,72.1,30.16,NNW,345,4.0,5.0,60,0.00,,,0.00,Wunderground v.1.15,2013-07-16 18:26:00,
2013-07-16 14:31:00,87.7,73.1,30.16,NNW,347,4.0,4.0,62,0.00,,,0.00,Wunderground v.1.15,2013-07-16 18:31:00,
2013-07-16 14:36:00,87.9,72.8,30.16,East,81,3.0,7.0,61,0.00,,,0.00,Wunderground v.1.15,2013-07-16 18:36:00,
2013-07-16 14:41:00,88.2,72.6,30.16,ENE,64,3.0,7.0,60,0.00,,,0.00,Wunderground v.1.15,2013-07-16 18:41:00,
2013-07-16 14:47:00,88.4,73.2,30.16,NNW,342,2.0,7.0,61,0.00,,,0.00,Wunderground v.1.15,2013-07-16 18:47:00,
2013-07-16 14:53:00,89.0,73.3,30.16,North,4,2.0,3.0,60,0.00,,,0.00,Wunderground v.1.15,2013-07-16 18:53:00,
2013-07-16 14:56:00,89.0,72.8,30.16,NNW,338,3.0,6.0,59,0.00,,,0.00,Wunderground v.1.15,2013-07-16 18:56:00,
2013-07-16 15:01:00,88.9,73.2,30.15,North,354,3.0,9.0,60,0.00,,,0.00,Wunderground v.1.15,2013-07-16 19:01:00,
2013-07-16 15:06:00,88.5,73.3,30.15,NNE,28,4.0,9.0,61,0.00,,,0.00,Wunderground v.1.15,2013-07-16 19:06:00,
2013-07-16 15:12:00,89.0,73.8,30.15,NE,41,3.0,4.0,61,0.00,,,0.00,Wunderground v.1.15,2013-07-16 19:12:00,
2013-07-16 15:17:00,89.4,73.2,30.15,North,359,3.0,5.0,59,0.00,,,0.00,Wunderground v.1.15,2013-07-16 19:17:00,
2013-07-16 15:23:00,89.5,73.8,30.14,NE,56,3.0,3.0,60,0.00,,,0.00,Wunderground v.1.15,2013-07-16 19:23:00,
2013-07-16 15:28:00,89.6,73.9,30.14,NNW,346,3.0,5.0,60,0.00,,,0.00,Wunderground v.1.15,2013-07-16 19:28:00,
2013-07-16 15:33:00,89.3,73.1,30.14,NNW,333,3.0,8.0,59,0.00,,,0.00,Wunderground v.1.15,2013-07-16 19:33:00,
2013-07-16 15:39:00,88.8,73.1,30.14,NW,318,4.0,8.0,60,0.00,,,0.00,Wunderground v.1.15,2013-07-16 19:39:00,
2013-07-16 15:44:00,88.5,73.3,30.14,NNW,339,4.0,7.0,61,0.00,,,0.00,Wunderground v.1.15,2013-07-16 19:44:00,
2013-07-16 15:50:00,88.9,73.2,30.14,ENE,67,3.0,3.0,60,0.00,,,0.00,Wunderground v.1.15,2013-07-16 19:50:00,
2013-07-16 15:55:00,89.1,73.9,30.14,ENE,76,2.0,5.0,61,0.00,,,0.00,Wunderground v.1.15,2013-07-16 19:55:00,
2013-07-16 16:01:00,89.3,73.1,30.14,NNE,20,3.0,4.0,59,0.00,,,0.00,Wunderground v.1.15,2013-07-16 20:01:00,
2013-07-16 16:06:00,89.4,72.7,30.14,NE,52,3.0,4.0,58,0.00,,,0.00,Wunderground v.1.15,2013-07-16 20:06:00,
2013-07-16 16:12:00,89.6,73.9,30.14,NE,43,2.0,2.0,60,0.00,,,0.00,Wunderground v.1.15,2013-07-16 20:12:00,
2013-07-16 16:18:00,90.1,73.8,30.14,NNW,332,2.0,5.0,59,0.00,,,0.00,Wunderground v.1.15,2013-07-16 20:18:00,
2013-07-16 16:24:00,89.4,72.7,30.14,NW,325,3.0,8.0,58,0.00,,,0.00,Wunderground v.1.15,2013-07-16 20:24:00,
2013-07-16 16:29:00,89.7,72.4,30.14,NNE,14,4.0,8.0,57,0.00,,,0.00,Wunderground v.1.15,2013-07-16 20:29:00,
2013-07-16 16:35:00,89.5,72.8,30.14,North,350,3.0,4.0,58,0.00,,,0.00,Wunderground v.1.15,2013-07-16 20:35:00,
2013-07-16 16:41:00,89.7,72.4,30.14,NNW,335,3.0,4.0,57,0.00,,,0.00,Wunderground v.1.15,2013-07-16 20:41:00,
2013-07-16 16:47:00,89.5,73.3,30.13,North,4,3.0,5.0,59,0.00,,,0.00,Wunderground v.1.15,2013-07-16 20:47:00,
2013-07-16 16:52:00,89.3,72.6,30.13,North,9,4.0,4.0,58,0.00,,,0.00,Wunderground v.1.15,2013-07-16 20:52:00,
2013-07-16 16:58:00,89.6,72.9,30.13,NNW,342,3.0,4.0,58,0.00,,,0.00,Wunderground v.1.15,2013-07-16 20:58:00,
2013-07-16 17:03:00,89.5,72.3,30.13,NNE,31,3.0,5.0,57,0.00,,,0.00,Wunderground v.1.15,2013-07-16 21:03:00,
2013-07-16 17:09:00,89.2,72.5,30.13,NNW,328,4.0,5.0,58,0.00,,,0.00,Wunderground v.1.15,2013-07-16 21:09:00,
2013-07-16 17:15:00,89.1,74.4,30.12,North,4,3.0,4.0,62,0.00,,,0.00,Wunderground v.1.15,2013-07-16 21:15:00,
2013-07-16 17:20:00,89.4,72.7,30.12,North,354,3.0,3.0,58,0.00,,,0.00,Wunderground v.1.15,2013-07-16 21:20:00,
2013-07-16 17:26:00,88.9,72.2,30.12,NW,319,4.0,6.0,58,0.00,,,0.00,Wunderground v.1.15,2013-07-16 21:26:00,
2013-07-16 17:31:00,88.8,72.1,30.12,ENE,71,3.0,4.0,58,0.00,,,0.00,Wunderground v.1.15,2013-07-16 21:31:00,
2013-07-16 17:37:00,89.3,72.1,30.12,North,4,2.0,4.0,57,0.00,,,0.00,Wunderground v.1.15,2013-07-16 21:37:00,
2013-07-16 17:43:00,89.4,73.2,30.13,North,8,2.0,3.0,59,0.00,,,0.00,Wunderground v.1.15,2013-07-16 21:43:00,
2013-07-16 17:49:00,89.7,73.0,30.13,NW,325,2.0,3.0,58,0.00,,,0.00,Wunderground v.1.15,2013-07-16 21:49:00,
2013-07-16 17:54:00,89.5,72.8,30.12,NNW,327,3.0,3.0,58,0.00,,,0.00,Wunderground v.1.15,2013-07-16 21:54:00,
2013-07-16 17:59:00,89.5,72.8,30.12,North,359,2.0,5.0,58,0.00,,,0.00,Wunderground v.1.15,2013-07-16 21:59:00,
2013-07-16 18:04:00,89.1,72.4,30.13,NNW,338,2.0,6.0,58,0.00,,,0.00,Wunderground v.1.15,2013-07-16 22:04:00,
2013-07-16 18:10:00,88.8,72.1,30.12,NNW,346,3.0,3.0,58,0.00,,,0.00,Wunderground v.1.15,2013-07-16 22:10:00,
2013-07-16 18:15:00,88.8,72.6,30.12,NNW,337,2.0,5.0,59,0.00,,,0.00,Wunderground v.1.15,2013-07-16 22:15:00,
2013-07-16 18:21:00,88.6,72.4,30.12,NNE,21,3.0,4.0,59,0.00,,,0.00,Wunderground v.1.15,2013-07-16 22:21:00,
2013-07-16 18:27:00,88.5,73.3,30.12,NNW,347,3.0,4.0,61,0.00,,,0.00,Wunderground v.1.15,2013-07-16 22:27:00,
2013-07-16 18:32:00,88.5,72.8,30.13,NW,322,2.0,4.0,60,0.00,,,0.00,Wunderground v.1.15,2013-07-16 22:32:00,
2013-07-16 18:38:00,88.6,72.9,30.13,NNW,331,3.0,6.0,60,0.00,,,0.00,Wunderground v.1.15,2013-07-16 22:38:00,
2013-07-16 18:44:00,88.3,72.7,30.13,NW,308,3.0,5.0,60,0.00,,,0.00,Wunderground v.1.15,2013-07-16 22:44:00,
2013-07-16 18:49:00,88.0,72.9,30.13,NNW,333,4.0,6.0,61,0.00,,,0.00,Wunderground v.1.15,2013-07-16 22:49:00,
2013-07-16 18:54:00,88.0,72.9,30.13,NNW,344,3.0,3.0,61,0.00,,,0.00,Wunderground v.1.15,2013-07-16 22:54:00,
2013-07-16 18:59:00,88.0,72.9,30.14,NNW,336,2.0,3.0,61,0.00,,,0.00,Wunderground v.1.15,2013-07-16 22:59:00,
2013-07-16 19:05:00,88.3,72.7,30.14,NNW,334,1.0,3.0,60,0.00,,,0.00,Wunderground v.1.15,2013-07-16 23:05:00,
2013-07-16 19:10:00,88.1,72.5,30.14,NNW,332,1.0,2.0,60,0.00,,,0.00,Wunderground v.1.15,2013-07-16 23:10:00,
2013-07-16 19:16:00,87.7,73.1,30.14,NNW,333,2.0,2.0,62,0.00,,,0.00,Wunderground v.1.15,2013-07-16 23:16:00,
2013-07-16 19:21:00,87.3,72.7,30.14,NNW,333,1.0,1.0,62,0.00,,,0.00,Wunderground v.1.15,2013-07-16 23:21:00,
2013-07-16 19:26:00,86.9,72.8,30.14,NNW,333,1.0,2.0,63,0.00,,,0.00,Wunderground v.1.15,2013-07-16 23:26:00,
2013-07-16 19:32:00,86.7,73.5,30.14,NNW,333,1.0,1.0,65,0.00,,,0.00,Wunderground v.1.15,2013-07-16 23:32:00,
2013-07-16 19:37:00,86.8,73.2,30.14,NNW,333,0.0,1.0,64,0.00,,,0.00,Wunderground v.1.15,2013-07-16 23:37:00,
2013-07-16 19:43:00,86.6,73.4,30.14,NNW,333,0.0,0.0,65,0.00,,,0.00,Wunderground v.1.15,2013-07-16 23:43:00,
2013-07-16 19:49:00,86.2,73.5,30.14,NNW,333,0.0,1.0,66,0.00,,,0.00,Wunderground v.1.15,2013-07-16 23:49:00,
2013-07-16 19:55:00,85.8,73.6,30.15,NNW,333,0.0,0.0,67,0.00,,,0.00,Wunderground v.1.15,2013-07-16 23:55:00,
2013-07-16 20:00:00,85.5,73.7,30.15,NNW,333,0.0,0.0,68,0.00,,,0.00,Wunderground v.1.15,2013-07-17 00:00:00,
2013-07-16 20:06:00,85.2,73.4,30.15,NNW,333,0.0,1.0,68,0.00,,,0.00,Wunderground v.1.15,2013-07-17 00:06:00,
2013-07-16 20:12:00,84.9,73.6,30.15,NNW,333,1.0,2.0,69,0.00,,,0.00,Wunderground v.1.15,2013-07-17 00:12:00,
2013-07-16 20:17:00,84.5,74.5,30.15,NNW,332,1.0,3.0,72,0.00,,,0.00,Wunderground v.1.15,2013-07-17 00:17:00,
2013-07-16 20:23:00,83.7,73.7,30.15,West,270,2.0,6.0,72,0.00,,,0.00,Wunderground v.1.15,2013-07-17 00:23:00,
2013-07-16 20:29:00,83.0,72.2,30.16,WNW,282,5.0,8.0,70,0.00,,,0.00,Wunderground v.1.15,2013-07-17 00:29:00,
2013-07-16 20:34:00,82.5,71.3,30.15,WNW,285,5.0,6.0,69,0.00,,,0.00,Wunderground v.1.15,2013-07-17 00:34:00,
2013-07-16 20:40:00,82.0,70.8,30.15,WSW,257,4.0,6.0,69,0.00,,,0.00,Wunderground v.1.15,2013-07-17 00:40:00,
2013-07-16 20:45:00,81.7,70.5,30.15,WNW,283,5.0,10.0,69,0.00,,,0.00,Wunderground v.1.15,2013-07-17 00:45:00,
2013-07-16 20:51:00,81.4,70.2,30.15,WSW,249,4.0,4.0,69,0.00,,,0.00,Wunderground v.1.15,2013-07-17 00:51:00,
2013-07-16 20:56:00,81.3,70.6,30.15,WSW,239,3.0,5.0,70,0.00,,,0.00,Wunderground v.1.15,2013-07-17 00:56:00,
2013-07-16 21:01:00,81.1,70.8,30.15,WSW,239,3.0,7.0,71,0.00,,,0.00,Wunderground v.1.15,2013-07-17 01:01:00,
2013-07-16 21:06:00,80.9,70.6,30.15,WSW,237,3.0,7.0,71,0.00,,,0.00,Wunderground v.1.15,2013-07-17 01:06:00,
2013-07-16 21:11:00,80.9,70.6,30.15,WSW,242,3.0,3.0,71,0.00,,,0.00,Wunderground v.1.15,2013-07-17 01:11:00,
2013-07-16 21:17:00,80.7,70.0,30.15,SSE,168,1.0,3.0,70,0.00,,,0.00,Wunderground v.1.15,2013-07-17 01:17:00,
2013-07-16 21:23:00,80.6,70.3,30.16,South,171,1.0,1.0,71,0.00,,,0.00,Wunderground v.1.15,2013-07-17 01:23:00,
2013-07-16 21:28:00,80.4,70.1,30.16,South,191,0.0,2.0,71,0.00,,,0.00,Wunderground v.1.15,2013-07-17 01:28:00,
2013-07-16 21:34:00,80.2,69.9,30.15,SSW,192,1.0,1.0,71,0.00,,,0.00,Wunderground v.1.15,2013-07-17 01:34:00,
2013-07-16 21:39:00,80.1,70.3,30.15,South,187,1.0,3.0,72,0.00,,,0.00,Wunderground v.1.15,2013-07-17 01:39:00,
2013-07-16 21:44:00,80.0,70.2,30.15,South,187,2.0,2.0,72,0.00,,,0.00,Wunderground v.1.15,2013-07-17 01:44:00,
2013-07-16 21:50:00,79.8,70.0,30.15,South,186,1.0,1.0,72,0.00,,,0.00,Wunderground v.1.15,2013-07-17 01:50:00,
2013-07-16 21:55:00,79.8,70.0,30.16,South,187,0.0,1.0,72,0.00,,,0.00,Wunderground v.1.15,2013-07-17 01:55:00,
2013-07-16 22:01:00,79.7,70.3,30.17,South,186,0.0,0.0,73,0.00,,,0.00,Wunderground v.1.15,2013-07-17 02:01:00,
2013-07-16 22:07:00,79.6,70.2,30.17,South,187,0.0,0.0,73,0.00,,,0.00,Wunderground v.1.15,2013-07-17 02:07:00,
2013-07-16 22:13:00,79.5,70.1,30.17,South,187,0.0,0.0,73,0.00,,,0.00,Wunderground v.1.15,2013-07-17 02:13:00,
2013-07-16 22:19:00,79.3,70.3,30.17,South,187,0.0,0.0,74,0.00,,,0.00,Wunderground v.1.15,2013-07-17 02:19:00,
2013-07-16 22:25:00,79.0,70.4,30.17,South,190,0.0,1.0,75,0.00,,,0.00,Wunderground v.1.15,2013-07-17 02:25:00,
2013-07-16 22:31:00,78.7,70.5,30.17,SSW,204,0.0,0.0,76,0.00,,,0.00,Wunderground v.1.15,2013-07-17 02:31:00,
2013-07-16 22:37:00,78.5,70.3,30.18,SSW,204,0.0,0.0,76,0.00,,,0.00,Wunderground v.1.15,2013-07-17 02:37:00,
2013-07-16 22:43:00,78.4,70.6,30.17,SSW,204,0.0,0.0,77,0.00,,,0.00,Wunderground v.1.15,2013-07-17 02:43:00,
2013-07-16 22:49:00,78.2,70.4,30.17,SSW,204,0.0,0.0,77,0.00,,,0.00,Wunderground v.1.15,2013-07-17 02:49:00,
2013-07-16 22:54:00,78.0,70.6,30.17,South,189,0.0,1.0,78,0.00,,,0.00,Wunderground v.1.15,2013-07-17 02:54:00,
2013-07-16 22:59:00,77.8,70.8,30.17,South,190,0.0,1.0,79,0.00,,,0.00,Wunderground v.1.15,2013-07-17 02:59:00,
2013-07-16 23:05:00,77.6,70.6,30.16,SSW,199,1.0,1.0,79,0.00,,,0.00,Wunderground v.1.15,2013-07-17 03:05:00,
2013-07-16 23:10:00,77.6,70.9,30.17,South,190,1.0,2.0,80,0.00,,,0.00,Wunderground v.1.15,2013-07-17 03:10:00,
2013-07-16 23:16:00,77.6,70.9,30.17,East,82,1.0,2.0,80,0.00,,,0.00,Wunderground v.1.15,2013-07-17 03:16:00,
2013-07-16 23:22:00,77.5,71.2,30.17,ESE,102,2.0,3.0,81,0.00,,,0.01,Wunderground v.1.15,2013-07-17 03:22:00,
2013-07-16 23:28:00,77.0,71.4,30.17,ESE,102,1.0,3.0,83,0.00,,,0.01,Wunderground v.1.15,2013-07-17 03:28:00,
2013-07-16 23:34:00,76.6,71.4,30.18,ESE,102,0.0,1.0,84,0.09,,,0.02,Wunderground v.1.15,2013-07-17 03:34:00,
2013-07-16 23:40:00,76.1,71.6,30.18,East,96,0.0,0.0,86,0.05,,,0.02,Wunderground v.1.15,2013-07-17 03:40:00,
2013-07-16 23:45:00,75.9,71.8,30.18,East,96,0.0,0.0,87,0.04,,,0.02,Wunderground v.1.15,2013-07-17 03:45:00,
2013-07-16 23:50:00,75.6,71.8,30.18,East,96,0.0,0.0,88,0.00,,,0.02,Wunderground v.1.15,2013-07-17 03:50:00,
2013-07-16 23:56:00,75.4,71.6,30.17,East,95,0.0,1.0,88,0.00,,,0.02,Wunderground v.1.15,2013-07-17 03:56:00,